GW0059 Weather Reports


time (UTC)temp
C
wind
direction
speed
KPH
gust
KPH
rain 1hr
cm
rain 24hr
cm
rain mn
cm
humidity
%
barometer
mb
20260905191326 33 134 0.0 4.8 0.00 0.03 0.00 56 1004.8
20260905190830 33 195 1.6 6.4 0.00 0.03 0.00 57 1004.9
20260905190354 33 170 1.6 6.4 0.00 0.03 0.00 58 1004.9
20260905185836 33 194 0.0 6.4 0.00 0.03 0.00 57 1004.9
20260905185332 33 165 0.0 14.5 0.00 0.03 0.00 56 1005.0
20260905184856 33 245 6.4 14.5 0.00 0.03 0.00 60 1005.1
20260905184339 33 219 0.0 4.8 0.00 0.03 0.00 56 1005.2
20260905183826 33 234 1.6 4.8 0.00 0.03 0.00 57 1005.3
20260905183351 33 186 3.2 4.8 0.00 0.03 0.00 57 1005.3
20260905182834 33 197 1.6 6.4 0.00 0.03 0.00 57 1005.5
20260905182350 33 186 1.6 9.7 0.00 0.03 0.00 57 1005.5
20260905181833 33 182 1.6 8.0 0.00 0.03 0.00 56 1005.5
20260905181359 33 179 4.8 17.7 0.00 0.03 0.00 58 1005.5
20260905180842 33 192 8.0 17.7 0.00 0.03 0.00 57 1005.4
20260905180345 33 217 3.2 6.4 0.00 0.03 0.00 56 1005.5
20260905175829 33 204 1.6 11.3 0.00 0.03 0.00 57 1005.5
20260905175326 32 211 3.2 11.3 0.00 0.03 0.00 57 1005.5
20260905174850 33 169 4.8 8.0 0.00 0.03 0.00 57 1005.6
20260905174352 33 193 3.2 6.4 0.00 0.03 0.00 58 1005.7
20260905173856 32 194 3.2 9.7 0.00 0.03 0.00 57 1005.9
20260905173400 32 195 4.8 12.9 0.00 0.03 0.00 58 1005.9
20260905172842 32 197 6.4 14.5 0.00 0.03 0.00 60 1006.0
20260905172339 32 144 8.0 14.5 0.00 0.03 0.00 57 1006.0
20260905171902 32 198 3.2 12.9 0.00 0.03 0.00 58 1006.2
20260905171345 32 180 4.8 12.9 0.00 0.03 0.00 59 1006.2
20260905170829 32 208 3.2 6.4 0.00 0.03 0.00 59 1006.3
20260905170334 32 205 3.2 11.3 0.00 0.03 0.00 60 1006.3
20260905165838 32 138 4.8 11.3 0.00 0.03 0.00 58 1006.5
20260905165355 32 188 4.8 6.4 0.00 0.03 0.00 58 1006.5
20260905164859 32 209 3.2 6.4 0.00 0.03 0.00 60 1006.6
20260905164346 31 205 1.6 6.4 0.00 0.03 0.00 61 1006.6
20260905163849 31 227 1.6 4.8 0.00 0.03 0.00 60 1006.7
20260905163352 31 199 1.6 4.8 0.00 0.03 0.00 60 1006.7
20260905162835 31 216 3.2 4.8 0.00 0.03 0.00 61 1006.7
20260905162330 31 196 3.2 4.8 0.00 0.03 0.00 59 1006.5
20260905161835 30 200 3.2 8.0 0.00 0.03 0.00 61 1006.6
20260905161339 30 234 3.2 8.0 0.00 0.03 0.00 61 1006.5
20260905160902 30 213 4.8 11.3 0.00 0.03 0.00 62 1006.7
20260905160325 30 149 6.4 11.3 0.00 0.03 0.00 61 1006.6
20260905155829 30 204 4.8 9.7 0.00 0.03 0.00 62 1006.8
20260905155347 30 199 4.8 11.3 0.00 0.03 0.00 62 1006.9
20260905154850 30 211 3.2 11.3 0.00 0.03 0.00 63 1006.9
20260905154354 30 202 1.6 4.8 0.00 0.03 0.00 63 1006.9
20260905153857 30 185 1.6 4.8 0.00 0.03 0.00 62 1006.9
20260905153339 30 205 1.6 4.8 0.00 0.03 0.00 61 1006.8
20260905152843 30 225 3.2 4.8 0.00 0.03 0.00 62 1006.8
20260905152400 30 175 1.6 12.9 0.00 0.03 0.00 63 1006.8
20260905151903 29 196 4.8 12.9 0.00 0.03 0.00 63 1006.9
20260905151326 29 202 4.8 6.4 0.00 0.03 0.00 63 1007.0
20260905150850 29 180 3.2 14.5 0.00 0.03 0.00 62 1007.0
20260905150353 28 120 8.0 14.5 0.00 0.03 0.00 61 1007.0
20260905145856 28 197 1.6 12.9 0.00 0.03 0.00 65 1006.9
20260905145352 28 163 4.8 12.9 0.00 0.03 0.00 64 1007.1
20260905144836 28 165 8.0 12.9 0.00 0.03 0.00 64 1007.1
20260905144324 28 187 4.8 12.9 0.00 0.03 0.00 65 1007.1
20260905143829 27 184 6.4 12.9 0.00 0.03 0.00 65 1007.2
20260905143332 27 185 3.2 17.7 0.00 0.03 0.00 68 1007.3
20260905142857 27 185 6.4 17.7 0.00 0.03 0.00 67 1007.2
20260905142334 27 186 4.8 12.9 0.00 0.03 0.00 68 1007.2
20260905141845 27 167 3.2 16.1 0.00 0.03 0.00 68 1007.4
20260905141335 26 160 8.0 16.1 0.00 0.03 0.00 67 1007.5
20260905140857 26 154 4.8 12.9 0.00 0.03 0.00 70 1007.5
20260905140333 26 198 6.4 12.9 0.00 0.03 0.00 70 1007.4
20260905135852 26 142 1.6 12.9 0.00 0.03 0.00 74 1007.5
20260905135354 25 157 6.4 16.1 0.00 0.03 0.00 70 1007.5
20260905060857 25 178 0.0 0.0 0.00 0.03 0.00 89 1005.9
20260905060340 25 178 0.0 0.0 0.00 0.03 0.00 89 1006.0
20260905055904 25 178 0.0 0.0 0.00 0.03 0.00 89 1005.9
20260905055338 25 178 0.0 0.0 0.00 0.03 0.00 89 1006.0
20260905054842 25 178 0.0 0.0 0.00 0.03 0.00 89 1006.0
20260905054325 25 178 0.0 0.0 0.00 0.03 0.00 88 1006.0
20260905053850 25 178 0.0 0.0 0.00 0.03 0.00 88 1006.0
20260905053333 25 178 0.0 0.0 0.00 0.03 0.00 87 1006.0
20260905052857 25 178 0.0 0.0 0.00 0.03 0.00 87 1006.1
20260905052353 25 178 0.0 0.0 0.00 0.03 0.00 87 1006.0
20260905051836 25 178 0.0 0.0 0.00 0.03 0.00 87 1006.1
20260905051359 25 178 0.0 0.0 0.00 0.03 0.00 87 1006.2
20260905050841 25 178 0.0 1.6 0.00 0.03 0.00 87 1006.2
20260905050345 25 178 0.0 1.6 0.00 0.03 0.00 87 1006.3
20260905045849 25 178 0.0 0.0 0.00 0.03 0.00 87 1006.4
20260905045329 25 178 0.0 0.0 0.00 0.03 0.00 87 1006.4
20260905044852 25 178 0.0 0.0 0.00 0.03 0.00 86 1006.5
20260905044355 25 178 0.0 0.0 0.00 0.03 0.00 86 1006.4
20260905043838 25 178 0.0 0.0 0.00 0.03 0.00 87 1006.5
20260905043342 25 178 0.0 0.0 0.00 0.03 0.00 87 1006.6
20260905042846 26 178 0.0 0.0 0.00 0.03 0.00 86 1006.6
20260905042403 26 178 0.0 0.0 0.00 0.03 0.00 86 1006.5
20260905041825 26 178 0.0 0.0 0.00 0.03 0.00 85 1006.4
20260905041349 26 178 0.0 0.0 0.00 0.03 0.00 85 1006.5
20260905040832 26 178 0.0 0.0 0.00 0.03 0.00 86 1006.4
20260905040336 26 178 0.0 0.0 0.00 0.03 0.00 85 1006.5
20260905035840 26 178 0.0 0.0 0.00 0.03 0.00 85 1006.4
20260905035336 26 178 0.0 0.0 0.00 0.03 0.03 85 1006.5
20260905034841 26 178 0.0 0.0 0.00 0.03 0.03 84 1006.4
20260905034404 26 178 0.0 0.0 0.00 0.03 0.03 84 1006.5
20260905033847 26 178 0.0 0.0 0.00 0.03 0.03 84 1006.5
20260905033331 26 178 0.0 0.0 0.00 0.03 0.03 84 1006.4
20260905032852 26 178 0.0 0.0 0.00 0.03 0.03 83 1006.4
20260905032348 26 178 0.0 0.0 0.00 0.03 0.03 83 1006.5
20260905031851 26 178 0.0 0.0 0.00 0.03 0.03 83 1006.5
20260905031353 26 178 0.0 0.0 0.00 0.03 0.03 82 1006.4
20260905030856 27 178 0.0 0.0 0.00 0.03 0.03 82 1006.4
20260905030359 27 178 0.0 0.0 0.00 0.03 0.03 82 1006.4
20260905025902 27 178 0.0 1.6 0.00 0.03 0.03 82 1006.3
20260905025337 27 178 0.0 0.0 0.00 0.03 0.03 81 1006.5
20260905024845 27 178 0.0 0.0 0.00 0.03 0.03 81 1006.5
20260905024328 27 178 0.0 1.6 0.00 0.03 0.03 81 1006.5
20260905023833 27 178 0.0 1.6 0.00 0.03 0.03 81 1006.5
20260905023356 27 178 0.0 0.0 0.00 0.03 0.03 81 1006.5
20260905022900 27 178 0.0 0.0 0.00 0.03 0.03 80 1006.5
20260905022355 27 178 0.0 0.0 0.00 0.03 0.03 80 1006.6
20260905021838 27 178 0.0 0.0 0.00 0.03 0.03 80 1006.5
20260905021344 27 178 0.0 1.6 0.00 0.03 0.03 80 1006.6
20260905020827 28 178 0.0 1.6 0.00 0.03 0.03 80 1006.6
20260905020351 28 111 0.0 3.2 0.00 0.03 0.03 80 1006.6
20260905015854 28 127 0.0 4.8 0.00 0.03 0.03 80 1006.5
20260905015329 28 72 0.0 4.8 0.00 0.03 0.03 80 1006.5
20260905014852 28 84 0.0 1.6 0.00 0.03 0.03 79 1006.4
20260905014355 28 131 0.0 3.2 0.00 0.03 0.03 78 1006.2
20260905013839 28 130 0.0 4.8 0.00 0.03 0.03 78 1006.1
20260905013402 28 92 1.6 4.8 0.00 0.03 0.03 77 1006.1
20260905012845 29 89 0.0 0.0 0.00 0.03 0.03 77 1006.0
20260905012340 29 89 0.0 0.0 0.00 0.03 0.03 76 1006.0
20260905011843 29 89 0.0 0.0 0.00 0.03 0.03 75 1005.9
20260905011328 29 89 0.0 0.0 0.00 0.03 0.03 73 1005.9
20260905010852 30 89 0.0 0.0 0.00 0.03 0.03 72 1005.9
20260905010338 30 89 0.0 0.0 0.00 0.03 0.03 72 1005.9
20260905005842 30 89 0.0 0.0 0.00 0.03 0.03 71 1005.9
20260905005338 30 89 0.0 0.0 0.00 0.03 0.03 71 1005.8
20260905004903 30 89 0.0 0.0 0.00 0.03 0.03 70 1005.8
20260905004345 30 89 0.0 0.0 0.00 0.03 0.03 69 1005.8
20260905003848 31 89 0.0 0.0 0.00 0.03 0.03 69 1005.8
20260905003352 31 89 0.0 0.0 0.00 0.03 0.03 68 1005.8
20260905002835 31 89 0.0 0.0 0.00 0.03 0.03 69 1005.8
20260905002351 31 89 0.0 0.0 0.00 0.03 0.03 68 1005.8
20260905001854 31 89 0.0 0.0 0.00 0.03 0.03 67 1005.7
20260905001337 31 89 0.0 0.0 0.00 0.03 0.03 68 1005.8
20260905000901 32 89 0.0 0.0 0.00 0.03 0.03 67 1005.8
20260905000343 32 89 0.0 0.0 0.00 0.03 0.03 66 1005.7
20260904235827 32 89 0.0 0.0 0.00 0.03 0.03 66 1005.7
20260904235344 32 89 0.0 0.0 0.00 0.03 0.03 65 1005.6
20260904234849 32 89 0.0 0.0 0.00 0.03 0.03 65 1005.5
20260904234331 32 89 0.0 0.0 0.00 0.03 0.03 65 1005.5
20260904233835 32 89 0.0 0.0 0.00 0.03 0.03 64 1005.5
20260904233339 32 89 0.0 0.0 0.00 0.03 0.03 63 1005.5
20260904232847 33 89 0.0 0.0 0.00 0.03 0.03 63 1005.6
20260904232342 33 89 0.0 0.0 0.03 0.03 0.03 63 1005.5
20260904231846 33 89 0.0 0.0 0.03 0.03 0.03 63 1005.4
20260904231350 33 89 0.0 0.0 0.03 0.03 0.03 63 1005.4
20260904230832 33 89 0.0 0.0 0.03 0.03 0.03 63 1005.5
20260904230337 33 89 0.0 0.0 0.03 0.03 0.03 62 1005.5
20260904225841 33 74 0.0 0.0 0.03 0.03 0.03 62 1005.6
20260904225337 34 77 0.0 1.6 0.03 0.03 0.03 61 1005.5
20260904224901 34 77 0.0 1.6 0.03 0.03 0.03 59 1005.6
20260904224344 35 182 0.0 0.0 0.03 0.03 0.03 59 1005.7
20260904223827 35 182 0.0 0.0 0.03 0.03 0.03 57 1005.6
20260904223352 35 157 0.0 0.0 0.03 0.03 0.03 57 1005.7
20260904222856 35 157 0.0 3.2 0.03 0.03 0.03 59 1005.7
20260904222352 35 136 0.0 3.2 0.00 0.00 0.00 56 1005.8
20260904221854 35 170 0.0 1.6 0.00 0.00 0.00 56 1005.7
20260904221337 35 227 0.0 0.0 0.00 0.00 0.00 55 1005.8
20260904220842 35 193 0.0 0.0 0.00 0.00 0.00 55 1005.8
20260904220325 35 69 0.0 1.6 0.00 0.00 0.00 55 1005.7
20260904215849 35 69 0.0 1.6 0.00 0.00 0.00 55 1005.8
20260904215405 35 180 0.0 4.8 0.00 0.00 0.00 54 1005.8
20260904214848 35 360 1.6 4.8 0.00 0.00 0.00 54 1005.7
20260904214336 35 171 0.0 9.7 0.00 0.00 0.00 54 1005.7
20260904213841 35 336 3.2 9.7 0.00 0.00 0.00 52 1005.8
20260904213405 35 267 1.6 8.0 0.00 0.00 0.00 54 1005.8
20260904212849 35 301 0.0 3.2 0.00 0.00 0.00 57 1005.8
20260904212343 35 25 0.0 3.2 0.00 0.00 0.00 56 1005.9
20260904211848 35 49 0.0 3.2 0.00 0.00 0.00 57 1005.9
20260904211331 35 296 0.0 3.2 0.00 0.00 0.00 59 1005.9
20260904210835 35 205 1.6 8.0 0.00 0.00 0.00 57 1005.9
20260904210359 35 60 3.2 8.0 0.00 0.00 0.00 55 1005.9
20260904205841 35 103 1.6 8.0 0.00 0.00 0.00 55 1006.0
20260904205358 35 173 0.0 4.8 0.00 0.00 0.00 57 1006.0
20260904204901 35 182 0.0 4.8 0.00 0.00 0.00 56 1006.0
20260904204404 35 169 0.0 9.7 0.00 0.00 0.00 55 1006.2
20260904203846 35 144 1.6 9.7 0.00 0.00 0.00 56 1006.3
20260904203330 35 113 0.0 9.7 0.00 0.00 0.00 55 1006.4
20260904202835 35 259 0.0 9.7 0.00 0.00 0.00 57 1006.4
20260904202352 35 327 6.4 11.3 0.00 0.00 0.00 54 1006.4
20260904201856 35 211 3.2 9.7 0.00 0.00 0.00 56 1006.6
20260904201339 35 193 0.0 9.7 0.00 0.00 0.00 56 1006.5
20260904200903 35 211 1.6 12.9 0.00 0.00 0.00 57 1006.5
20260904200347 35 334 1.6 12.9 0.00 0.00 0.00 57 1006.5
20260904195829 35 123 1.6 9.7 0.00 0.00 0.00 57 1006.6
20260904195329 35 360 4.8 9.7 0.00 0.00 0.00 55 1006.5
20260904194853 36 306 1.6 8.0 0.00 0.00 0.00 56 1006.6
20260904194356 36 146 1.6 8.0 0.00 0.00 0.00 55 1006.7
20260904193840 36 195 0.0 6.4 0.00 0.00 0.00 58 1006.7
20260904193404 36 325 1.6 6.4 0.00 0.00 0.00 54 1006.7
20260904192826 36 300 1.6 3.2 0.00 0.00 0.00 56 1006.9
20260904192404 36 144 1.6 3.2 0.00 0.00 0.00 55 1007.1
20260904191827 36 109 0.0 4.8 0.00 0.00 0.00 56 1007.1